Погода в Маньях-ле-Онгре

Франция     48°51′35″N   2°48′48″E
темп.,
°C
ветер,
м/с
пор.,
м/с
влажн.,
%
обл.,
%
осадки,
мм/ч
давл.,
гПа
погр.,
м
4 декабря, сб
сб401:00+10юз81795100 5.8 1000963
04:00+11зюз91792100 3.6 9981080
07:00+11зюз61289100 3.8 998581
10:00+11зюз71487100 0.6 998765
13:00+10зсз71183100 1.6 9991440
16:00+8зсз61361100 1.5 10031328
19:00+6з6117120 1.5 1005495
22:00+5юз51178100 0.0 1005432
5 декабря, вс
вс501:00+5зюз61283100 0.1 1004533
04:00+4зюз5108968 0.1 1003500
07:00+4зюз5108833 0.3 1003315
10:00+5з71282100 0.0 1004890
13:00+6зсз61178100 0.4 10041145
16:00+4сз51189100 1.8 1005906
19:00+5сз5992100 3.3 10071059
22:00+5сз488733 0.8 1010522
6 декабря, пн
пн601:00+2с36935 0.8 1012137
04:00+2сз229126 0.0 101415
07:00+3юз2286100 0.0 101642
10:00+4ю4683100 0.0 1016207
13:00+6ююз588094 0.0 1015504
16:00+6ююз71177100 0.1 1012898
19:00+6юз81584100 1.1 10111079
22:00+6з5117647 1.3 1012409
7 декабря, вт
вт701:00+5з6117934 1.3 1015531
04:00+3зюз49865 0.0 1016217
07:00+2юз36925 0.0 1016124
10:00+3ю3588100 0.0 1015152
13:00+6ю5975100 0.0 1012447
16:00+5ююв71380100 0.0 1006648
19:00+4ююв71584100 0.1 1002655
22:00+5ю71486100 2.1 9981014
8 декабря, ср
ср801:00+5з6118194 2.9 999558
04:00+3ююз5118760 0.0 1000320
07:00+3ююз5995100 0.3 1000478
10:00+4юз5884100 0.0 1001638
13:00+6юз587014 0.0 1001781
16:00+5ююз47725 0.0 1001295
19:00+3ю410894 0.0 1002237
22:00+3ю51186100 0.0 1002309